Temp
-10 -10 -10 -10 -9 -10 -9 -9 -9 -9 -9 -9 -9 -9 -9 -9 -9 -8 -8 -8 -8 -8 -9 -8 -8 -8 -9 -9 -9 -9 -10 -9 -9 -9 -10 -10 -11 -11 -11 -11 -11 -11 -11 -11 -11
-10 -10 -10 -10 -10 -10 -10 -10 -9 -10 -9 -9 -10 -9 -9 -9 -9 -9 -9 -9 -9 -9 -9 -9 -9 -9 -9 -9 -9 -10 -10 -10 -10 -10 -10 -11 -11 -11 -11 -11 -11 -11 -11 -11 -11
-10 -11 -10 -10 -10 -10 -10 -10 -10 -10 -10 -10 -10 -10 -10 -10 -9 -9 -9 -9 -9 -9 -9 -9 -9 -9 -9 -9 -10 -10 -10 -10 -10 -10 -10 -10 -11 -11 -11 -12 -11 -11 -11 -11 -12
-11 -11 -11 -11 -11 -11 -10 -10 -10 -10 -10 -10 -10 -10 -10 -10 -10 -10 -10 -10 -9 -10 -10 -10 -9 -10 -10 -10 -11 -10 -11 -11 -11 -11 -11 -11 -11 -11 -12 -11 -11 -11 -12 -12 -12
-11 -11 -11 -11 -11 -11 -11 -11 -11 -11 -11 -11 -11 -11 -11 -11 -11 -10 -10 -10 -10 -10 -10 -10 -11 -11 -11 -11 -11 -11 -11 -11 -11 -11 -11 -11 -12 -12 -12 -12 -12 -12 -12 -12 -12
-11 -12 -12 -12 -11 -11 -11 -11 -11 -11 -12 -12 -11 -11 -12 -12 -11 -11 -11 -11 -11 -11 -10 -11 -12 -12 -11 -11 -11 -12 -12 -12 -12 -12 -12 -12 -12 -12 -12 -12 -12 -12 -12 -12 -12
-12 -12 -12 -12 -12 -12 -12 -12 -11 -12 -12 -12 -11 -12 -12 -12 -12 -12 -11 -11 -11 -11 -11 -12 -12 -12 -12 -11 -12 -12 -12 -12 -12 -12 -12 -13 -12 -12 -12 -12 -12 -12 -12 -12 -12
-13 -13 -13 -13 -13 -12 -12 -12 -12 -12 -12 -12 -12 -12 -13 -12 -12 -13 -12 -12 -12 -12 -12 -12 -12 -12 -12 -12 -12 -12 -12 -13 -13 -13 -12 -13 -12 -12 -12 -12 -12 -12 -12 -12 -12
-14 -14 -13 -13 -13 -13 -13 -13 -13 -13 -13 -13 -13 -13 -14 -13 -13 -13 -12 -12 -12 -11 -12 -12 -13 -12 -12 -12 -12 -13 -13 -13 -13 -13 -13 -13 -13 -12 -12 -12 -12 -12 -12 -12 -12
-14 -14 -14 -14 -14 -14 -13 -13 -13 -13 -13 -14 -13 -13 -14 -13 -13 -13 -13 -13 -13 -12 -12 -12 -13 -13 -13 -13 -12 -13 -13 -13 -14 -13 -13 -13 -13 -13 -13 -13 -13 -13 -13 -13 -13
-14 -15 -15 -14 -14 -14 -14 -14 -13 -13 -13 -14 -13 -13 -13 -13 -13 -14 -14 -14 -14 -13 -13 -13 -14 -14 -14 -13 -13 -13 -13 -13 -13 -13 -13 -13 -13 -12 -12 -13 -13 -13 -13 -14 -14
-14 -15 -15 -15 -14 -14 -14 -14 -14 -14 -13 -13 -13 -13 -14 -13 -13 -14 -14 -14 -14 -14 -14 -13 -14 -14 -14 -14 -14 -14 -14 -14 -14 -14 -13 -13 -13 -13 -13 -13 -14 -14 -14 -14 -14
-15 -14 -14 -14 -14 -15 -15 -15 -14 -14 -13 -13 -14 -13 -14 -13 -13 -14 -14 -14 -14 -14 -14 -13 -14 -14 -14 -14 -14 -14 -14 -14 -13 -13 -13 -13 -12 -13 -13 -14 -14 -14 -15 -15 -15
-15 -15 -15 -15 -14 -15 -15 -15 -15 -14 -14 -13 -14 -13 -14 -14 -13 -15 -14 -14 -14 -14 -15 -14 -15 -15 -15 -15 -15 -14 -14 -14 -14 -14 -13 -13 -12 -13 -14 -14 -15 -15 -16 -16 -16
-16 -16 -16 -15 -15 -16 -16 -15 -15 -15 -15 -14 -13 -14 -14 -15 -14 -15 -15 -14 -14 -15 -15 -15 -15 -15 -15 -16 -15 -15 -15 -15 -15 -15 -14 -14 -14 -13 -13 -14 -16 -16 -17 -17 -17
-19 -19 -17 -17 -17 -18 -18 -17 -17 -18 -14 -14 -13 -14 -15 -15 -14 -14 -15 -15 -15 -15 -15 -16 -15 -16 -16 -16 -16 -16 -16 -16 -15 -15 -14 -15 -16 -13 -15 -15 -16 -17 -18 -18 -18
-20 -20 -19 -19 -18 -19 -19 -19 -19 -17 -15 -15 -15 -15 -15 -16 -16 -16 -16 -16 -16 -16 -16 -16 -16 -17 -17 -17 -17 -17 -17 -17 -16 -16 -16 -16 -16 -15 -16 -16 -17 -18 -18 -18 -18
-20 -20 -20 -21 -20 -20 -20 -20 -19 -16 -16 -16 -16 -16 -16 -16 -16 -17 -17 -17 -17 -17 -17 -17 -17 -17 -17 -17 -18 -18 -18 -18 -18 -17 -17 -16 -16 -16 -17 -18 -18 -19 -19 -19 -19
-20 -20 -20 -20 -20 -20 -21 -21 -19 -17 -17 -18 -17 -17 -17 -17 -17 -18 -17 -18 -18 -18 -18 -18 -18 -18 -18 -18 -19 -19 -19 -19 -19 -19 -18 -17 -18 -18 -18 -18 -19 -20 -20 -20 -20
-22 -22 -21 -21 -20 -20 -21 -20 -18 -18 -18 -18 -18 -18 -18 -18 -18 -18 -18 -18 -19 -19 -20 -19 -19 -19 -19 -19 -19 -20 -20 -20 -20 -20 -20 -19 -19 -19 -19 -20 -20 -20 -20 -20 -21
-22 -22 -22 -22 -22 -21 -21 -20 -19 -19 -19 -18 -19 -19 -19 -19 -19 -19 -19 -19 -19 -20 -20 -20 -21 -20 -20 -20 -20 -20 -20 -21 -21 -22 -22 -22 -19 -20 -20 -21 -21 -21 -21 -21 -21
-23 -23 -22 -23 -23 -22 -22 -20 -20 -19 -19 -19 -19 -19 -19 -19 -19 -20 -19 -20 -20 -21 -21 -21 -21 -20 -20 -20 -21 -21 -21 -22 -22 -22 -22 -22 -20 -20 -21 -21 -21 -21 -21 -21 -21
-24 -24 -24 -24 -24 -23 -22 -22 -21 -21 -21 -21 -20 -20 -20 -21 -21 -21 -20 -21 -21 -22 -21 -22 -22 -22 -21 -21 -21 -22 -22 -22 -22 -22 -21 -22 -21 -21 -22 -22 -21 -21 -21 -21 -22
-25 -25 -25 -25 -25 -23 -22 -22 -22 -22 -22 -22 -21 -21 -21 -22 -22 -21 -22 -22 -22 -22 -22 -22 -22 -22 -22 -22 -22 -22 -22 -22 -22 -21 -22 -21 -22 -21 -22 -22 -21 -21 -22 -22 -22
-26 -26 -25 -25 -25 -23 -23 -23 -23 -22 -23 -22 -22 -22 -22 -23 -22 -22 -22 -22 -22 -23 -23 -22 -22 -22 -22 -22 -22 -22 -22 -22 -22 -22 -23 -21 -21 -22 -22 -21 -22 -22 -22 -22 -22
-27 -27 -26 -25 -25 -26 -24 -23 -23 -23 -23 -23 -22 -23 -24 -23 -23 -23 -23 -23 -23 -22 -22 -23 -23 -22 -23 -23 -23 -22 -22 -22 -22 -23 -23 -22 -21 -22 -22 -22 -22 -22 -23 -23 -23
-28 -27 -28 -26 -26 -26 -25 -23 -23 -24 -24 -24 -24 -25 -24 -24 -24 -24 -24 -24 -23 -23 -23 -23 -23 -23 -23 -23 -23 -22 -22 -23 -23 -23 -22 -22 -22 -22 -22 -22 -23 -23 -23 -23 -22
Height
5814 5817 5817 5819 5821 5822 5824 5826 5827 5828 5828 5829 5831 5831 5832 5831 5832 5832 5833 5833 5832 5833 5833 5833 5833 5832 5832 5832 5831 5831 5831 5830 5829 5827 5827 5827 5828 5828 5829 5829 5828 5828 5827 5827 5829
5806 5807 5809 5812 5813 5814 5815 5817 5819 5821 5821 5821 5823 5823 5825 5825 5825 5825 5826 5826 5826 5826 5826 5827 5827 5827 5826 5826 5826 5826 5825 5825 5824 5823 5822 5822 5824 5824 5824 5823 5821 5818 5820 5825 5825
5796 5798 5800 5803 5804 5806 5807 5810 5811 5812 5814 5814 5815 5815 5816 5818 5818 5818 5819 5819 5819 5819 5819 5820 5821 5821 5821 5821 5821 5819 5820 5820 5820 5819 5819 5819 5820 5820 5820 5818 5813 5817 5817 5819 5818
5786 5788 5791 5793 5795 5796 5799 5801 5803 5804 5805 5807 5807 5809 5810 5812 5812 5811 5812 5812 5812 5812 5813 5813 5813 5814 5815 5815 5815 5815 5815 5815 5815 5815 5816 5816 5815 5815 5813 5811 5815 5814 5813 5812 5811
5776 5779 5780 5783 5785 5787 5790 5793 5795 5796 5797 5799 5800 5802 5802 5804 5804 5804 5804 5805 5805 5805 5806 5805 5805 5806 5808 5809 5810 5810 5810 5811 5810 5811 5812 5812 5811 5811 5810 5810 5810 5809 5808 5807 5805
5766 5768 5772 5774 5776 5778 5781 5784 5785 5789 5789 5790 5792 5794 5795 5796 5795 5795 5795 5797 5797 5798 5797 5798 5800 5801 5802 5804 5805 5804 5804 5804 5805 5806 5807 5808 5807 5807 5807 5805 5804 5803 5802 5801 5799
5755 5757 5760 5764 5766 5768 5772 5774 5777 5781 5781 5782 5783 5785 5787 5786 5787 5786 5786 5787 5788 5790 5791 5793 5793 5795 5797 5798 5799 5799 5800 5799 5798 5799 5801 5802 5802 5802 5801 5799 5797 5796 5795 5793 5791
5743 5746 5749 5753 5755 5759 5762 5763 5767 5770 5772 5774 5775 5776 5778 5780 5780 5781 5782 5781 5782 5784 5786 5788 5789 5791 5793 5792 5792 5793 5793 5792 5792 5792 5793 5794 5793 5794 5793 5792 5790 5787 5785 5784 5782
5732 5735 5737 5740 5744 5747 5750 5754 5756 5760 5765 5765 5768 5768 5770 5772 5774 5775 5776 5777 5778 5780 5781 5783 5785 5787 5787 5786 5785 5786 5786 5786 5785 5785 5784 5785 5785 5784 5782 5780 5779 5777 5775 5772 5770
5718 5723 5726 5729 5732 5735 5738 5743 5745 5751 5755 5758 5761 5764 5765 5766 5767 5768 5769 5771 5774 5775 5776 5777 5779 5780 5780 5779 5779 5778 5778 5777 5779 5779 5776 5776 5776 5774 5772 5770 5768 5765 5763 5759 5756
5706 5711 5716 5718 5721 5725 5728 5731 5737 5742 5748 5751 5753 5754 5757 5759 5759 5759 5762 5764 5766 5768 5769 5770 5772 5771 5770 5771 5772 5771 5770 5770 5768 5767 5768 5768 5766 5763 5761 5759 5757 5754 5750 5747 5743
5694 5698 5702 5706 5709 5715 5717 5721 5726 5731 5735 5739 5742 5746 5747 5749 5750 5752 5755 5757 5758 5759 5760 5762 5761 5762 5762 5762 5764 5763 5761 5761 5759 5758 5757 5757 5756 5753 5750 5748 5745 5742 5738 5735 5731
5681 5684 5689 5693 5698 5701 5706 5709 5714 5718 5722 5730 5733 5734 5735 5736 5741 5743 5746 5747 5748 5748 5751 5750 5753 5754 5754 5753 5754 5752 5752 5750 5749 5748 5747 5747 5747 5743 5740 5737 5733 5729 5726 5722 5718
5662 5669 5674 5680 5687 5690 5694 5695 5700 5704 5706 5717 5722 5722 5726 5726 5730 5734 5733 5738 5738 5741 5741 5741 5742 5743 5744 5744 5743 5742 5741 5740 5739 5738 5737 5736 5737 5735 5731 5726 5722 5718 5713 5709 5705
5646 5652 5656 5664 5672 5676 5678 5681 5686 5692 5698 5704 5706 5711 5713 5717 5722 5724 5726 5726 5729 5732 5734 5733 5733 5734 5734 5734 5732 5731 5731 5730 5727 5725 5725 5723 5722 5726 5717 5714 5710 5704 5699 5694 5691
5629 5634 5642 5649 5657 5659 5664 5668 5675 5680 5684 5690 5694 5698 5702 5706 5712 5714 5717 5717 5720 5720 5722 5724 5724 5725 5724 5722 5722 5722 5721 5719 5717 5715 5714 5712 5709 5717 5707 5705 5697 5691 5686 5682 5678
5613 5619 5628 5636 5642 5645 5649 5654 5660 5665 5676 5681 5686 5688 5691 5697 5702 5705 5707 5709 5710 5710 5712 5714 5714 5713 5713 5712 5712 5710 5709 5706 5705 5702 5702 5700 5696 5700 5698 5690 5685 5679 5673 5668 5662
5597 5605 5613 5621 5626 5630 5633 5638 5644 5660 5665 5669 5674 5677 5681 5684 5689 5692 5693 5696 5698 5700 5702 5703 5704 5704 5703 5702 5700 5700 5699 5696 5691 5691 5690 5688 5685 5689 5686 5680 5673 5666 5660 5655 5650
5578 5587 5598 5608 5610 5614 5616 5618 5637 5651 5654 5657 5662 5665 5669 5673 5677 5681 5682 5685 5686 5690 5691 5691 5691 5692 5693 5691 5691 5690 5689 5686 5680 5680 5677 5679 5677 5678 5677 5670 5662 5656 5650 5644 5639
5561 5570 5585 5593 5595 5597 5595 5603 5628 5639 5642 5645 5650 5654 5658 5662 5665 5669 5671 5673 5676 5677 5676 5678 5679 5680 5681 5681 5679 5678 5678 5675 5670 5666 5664 5667 5665 5668 5664 5658 5652 5645 5639 5633 5628
5545 5553 5571 5577 5579 5579 5579 5597 5617 5625 5628 5633 5636 5640 5646 5650 5653 5657 5659 5661 5663 5664 5665 5666 5668 5670 5669 5671 5669 5667 5667 5665 5660 5657 5653 5651 5659 5660 5649 5646 5640 5634 5628 5622 5617
5528 5536 5555 5558 5560 5563 5573 5593 5603 5610 5612 5618 5623 5628 5633 5638 5642 5645 5648 5649 5651 5652 5654 5655 5656 5659 5660 5660 5659 5659 5658 5655 5650 5651 5647 5642 5645 5648 5640 5632 5628 5623 5617 5612 5608
5512 5523 5534 5538 5537 5554 5569 5581 5587 5594 5599 5605 5613 5617 5621 5626 5631 5633 5636 5638 5640 5641 5644 5645 5646 5649 5649 5651 5652 5650 5649 5646 5643 5642 5643 5634 5636 5636 5627 5623 5618 5612 5607 5603 5600
5495 5504 5515 5518 5526 5544 5558 5568 5574 5580 5589 5595 5601 5605 5610 5615 5620 5622 5625 5628 5630 5632 5634 5635 5636 5638 5639 5639 5639 5639 5639 5637 5635 5634 5630 5630 5622 5628 5618 5612 5607 5602 5598 5595 5593
5481 5484 5497 5505 5517 5535 5546 5555 5562 5570 5578 5584 5588 5594 5600 5604 5608 5611 5616 5618 5622 5624 5625 5626 5628 5629 5629 5628 5628 5628 5629 5628 5627 5626 5618 5621 5614 5613 5606 5602 5598 5593 5591 5588 5586
5465 5474 5480 5501 5513 5519 5528 5543 5556 5564 5567 5573 5577 5584 5589 5594 5598 5602 5605 5609 5612 5615 5616 5617 5617 5619 5620 5619 5617 5619 5621 5619 5617 5615 5611 5607 5607 5601 5597 5592 5589 5587 5584 5581 5579
5449 5462 5470 5488 5499 5505 5516 5539 5544 5550 5554 5561 5568 5572 5579 5584 5588 5591 5595 5599 5603 5605 5605 5607 5608 5610 5611 5610 5608 5614 5613 5610 5606 5606 5602 5599 5598 5593 5589 5585 5583 5581 5578 5575 5573
Wind_Speed
49 49 46 45 45 44 43 43 41 40 39 39 39 39 40 39 38 38 38 36 35 34 32 31 30 28 27 24 21 18 18 20 20 22 22 23 23 23 25 26 27 28 30 30 29
52 50 49 48 47 47 45 44 43 42 40 39 40 38 40 40 40 37 38 37 35 33 33 32 29 28 26 23 20 19 20 19 18 19 20 22 22 23 25 26 28 31 31 28 27
53 51 49 49 48 48 46 45 44 42 41 38 38 38 37 38 37 37 36 36 35 34 33 31 29 27 27 23 19 17 18 18 19 19 20 21 21 23 23 26 32 30 29 28 27
52 51 50 48 49 48 46 44 41 38 36 35 35 33 34 34 34 36 36 35 35 34 33 31 32 31 27 22 17 16 17 18 20 19 17 15 15 15 18 25 24 24 24 25 25
51 49 48 48 46 44 42 41 38 35 30 32 34 37 40 38 38 38 39 36 35 31 29 32 30 27 23 19 16 16 18 20 23 22 20 19 17 16 19 22 24 28 30 33 36
52 49 48 47 44 44 41 39 37 36 36 37 40 45 41 40 41 40 40 39 34 28 26 22 21 20 19 18 17 17 22 24 25 23 21 21 23 25 26 30 32 32 33 35 38
50 48 48 46 42 45 44 43 42 44 44 42 47 45 35 39 33 32 27 26 26 24 18 16 18 19 17 17 18 22 24 26 25 26 26 24 28 28 31 34 36 38 39 41 44
54 52 51 50 48 51 49 46 48 50 46 42 41 40 32 35 26 22 19 16 16 17 14 13 18 18 19 21 24 26 28 27 28 30 32 32 35 35 36 38 43 46 48 49 51
58 57 55 55 54 53 55 57 52 49 40 31 30 31 28 26 21 22 20 15 16 18 14 15 18 20 24 27 30 31 31 29 32 33 36 38 39 40 42 46 44 44 47 49 50
54 52 52 55 53 52 49 47 47 44 37 32 33 29 27 24 21 23 22 20 18 20 23 25 23 22 29 32 32 29 31 33 32 33 37 39 41 42 45 43 45 48 50 52 52
50 52 53 51 50 46 48 50 52 45 37 36 36 35 32 34 32 30 30 26 26 28 31 33 34 31 31 31 30 29 29 30 32 35 35 36 38 41 44 47 48 50 52 53 55
57 55 55 54 55 51 55 56 52 49 46 43 42 42 40 38 41 37 34 33 33 34 33 35 35 31 29 30 30 32 34 35 38 39 40 40 42 44 47 49 50 50 51 53 55
69 63 63 65 61 53 55 55 56 54 54 51 47 46 42 48 46 41 41 38 38 38 29 33 30 31 32 33 34 37 39 42 44 44 44 45 44 47 48 49 50 51 53 55 57
78 77 75 72 70 65 65 67 61 56 58 60 49 52 47 49 48 35 36 33 36 32 30 34 32 35 36 37 39 43 44 46 46 46 48 48 50 49 50 52 53 54 56 57 57
75 73 79 79 74 68 60 62 61 60 59 55 58 52 49 44 44 36 31 35 34 30 33 36 38 38 38 40 44 46 46 45 47 49 50 53 53 49 53 53 53 55 56 57 57
71 65 70 67 63 59 56 56 51 47 61 59 57 51 45 38 36 34 30 33 31 34 35 36 39 40 42 45 46 44 45 47 49 50 52 52 53 50 54 54 56 56 56 55 58
69 67 66 64 59 59 58 57 53 58 60 57 54 54 48 42 38 36 37 36 37 38 39 39 41 42 43 44 42 44 46 47 49 51 53 53 56 55 52 54 54 55 55 57 59
70 73 70 60 59 57 57 57 58 60 57 54 55 52 50 46 44 40 39 38 37 37 37 38 40 41 41 42 43 44 45 46 48 51 51 52 55 52 51 51 54 55 55 56 57
70 65 64 67 71 64 56 58 60 60 56 53 53 52 50 48 48 46 45 42 39 37 38 39 40 39 40 41 41 41 41 41 44 47 50 51 51 50 48 52 51 51 52 54 55
66 69 63 59 63 66 64 66 62 62 62 56 54 54 53 51 50 49 46 45 40 38 37 39 40 40 39 39 39 37 38 40 41 45 48 48 47 46 46 45 47 48 51 52 52
66 66 64 65 60 62 65 61 55 55 58 59 57 56 54 54 51 50 48 43 40 37 38 40 39 40 39 37 35 37 38 38 40 41 42 45 44 39 43 44 44 47 49 49 50
68 66 63 62 66 64 58 55 55 53 55 55 55 54 52 51 51 49 45 41 39 36 34 34 35 34 34 36 38 34 35 38 39 39 42 45 46 37 41 43 43 46 47 49 45
69 67 64 64 64 63 57 53 48 48 48 45 46 47 44 42 41 42 42 38 34 33 33 29 33 32 36 38 37 35 37 39 40 41 40 45 44 37 40 40 45 49 48 43 38
68 68 67 67 63 58 56 49 48 46 45 46 45 43 40 38 37 37 36 35 35 35 30 32 34 35 36 38 38 37 38 39 40 42 42 41 42 38 39 43 47 45 39 35 27
66 69 70 70 66 61 57 55 53 53 50 49 48 46 40 37 38 37 35 32 33 35 35 36 37 38 41 40 40 37 36 37 41 41 47 36 45 40 43 43 38 35 33 29 26
62 63 68 65 61 60 60 56 50 45 44 43 48 39 36 37 38 36 36 36 39 37 37 38 39 38 36 36 37 34 34 39 43 44 43 44 44 42 42 38 33 30 24 26 27
48 53 60 62 61 61 59 50 49 48 46 43 41 40 40 41 42 41 39 39 36 37 39 38 37 36 37 37 38 37 34 37 37 38 42 43 41 39 36 29 27 23 23 23 21
Wind_Direction
262 263 264 264 266 267 269 272 273 274 274 275 275 277 279 279 281 281 282 284 285 286 287 289 291 291 292 295 295 292 288 290 294 288 286 278 272 269 273 272 268 266 263 265 273
262 263 265 266 267 267 268 270 272 273 273 274 276 276 277 278 279 280 281 283 283 283 285 286 286 288 288 291 293 291 282 289 289 283 278 275 273 269 269 271 274 270 276 286 284
262 263 265 267 268 268 269 270 271 273 274 274 274 275 275 279 281 281 280 280 282 283 282 283 283 283 284 284 283 291 282 283 287 283 283 284 283 275 273 273 269 281 286 287 288
262 264 264 265 267 267 269 270 271 272 272 275 274 276 281 286 284 281 280 281 281 282 282 285 281 277 277 273 277 281 276 278 284 282 282 284 285 288 278 274 289 295 295 294 294
261 263 263 263 266 268 268 269 268 267 272 280 275 280 284 286 280 281 280 282 281 279 282 280 271 265 265 267 273 273 275 275 278 281 281 279 277 271 278 284 289 292 291 292 292
260 261 262 262 264 265 265 267 267 265 274 281 283 281 285 281 278 277 279 280 277 277 274 267 264 262 265 272 276 271 271 273 274 275 271 272 272 274 275 277 280 279 281 285 285
259 259 260 261 261 266 263 266 267 272 279 283 282 280 276 276 275 276 279 272 270 257 256 254 253 259 263 270 287 279 270 272 274 273 271 269 272 275 277 279 280 278 279 282 283
257 257 258 259 261 262 263 267 268 267 276 278 273 270 267 272 273 268 273 277 267 246 254 262 268 267 269 265 274 282 274 273 273 272 272 274 278 277 276 278 280 278 279 281 283
256 256 258 259 262 262 266 268 267 268 270 267 264 257 260 264 262 267 272 266 270 266 248 264 270 274 268 264 277 280 276 275 274 272 271 272 276 279 281 285 285 282 281 282 281
253 252 256 254 258 264 267 259 262 267 259 257 258 261 256 259 257 261 265 270 265 252 261 273 267 279 266 264 278 276 275 277 276 273 273 276 279 280 282 285 288 289 288 287 287
246 249 251 248 257 263 262 259 265 261 254 257 253 252 269 254 254 266 269 270 273 268 272 269 277 272 266 268 272 271 272 274 275 275 277 279 281 283 286 287 287 286 286 286 284
238 242 240 251 259 255 256 263 260 256 257 258 252 259 264 259 255 262 266 271 274 265 269 276 281 269 265 266 269 272 275 278 279 281 283 282 280 281 281 282 283 282 282 282 282
243 243 243 248 250 250 252 257 256 254 258 262 259 259 254 255 264 265 267 272 268 263 270 274 273 269 271 273 276 279 281 283 285 284 284 284 283 281 282 283 283 283 281 280 280
243 243 249 249 250 254 256 262 258 258 260 261 257 257 257 259 262 258 264 264 266 267 268 273 268 267 270 274 275 278 281 283 282 282 281 281 281 281 281 282 282 282 283 282 281
246 248 250 254 252 255 254 255 254 256 261 259 261 256 256 254 257 256 255 259 263 262 258 263 266 268 270 270 273 277 280 281 280 281 282 284 284 284 282 283 286 286 286 287 288
248 250 250 250 251 253 255 254 253 248 255 254 258 255 253 252 252 253 247 251 255 259 259 257 264 267 269 271 275 278 278 278 279 281 281 284 283 281 284 286 287 288 291 292 293
244 245 247 247 248 249 250 251 248 248 251 253 254 256 257 257 257 253 255 256 257 258 261 262 264 266 269 271 274 275 276 279 281 282 284 283 282 283 287 288 290 293 296 297 296
247 250 245 245 246 246 247 245 245 248 249 251 254 254 258 261 261 260 258 257 258 261 261 261 262 265 268 271 273 276 279 281 282 282 283 283 284 288 291 294 296 297 297 297 295
247 245 246 249 247 245 244 242 245 246 249 250 251 254 256 258 259 260 259 259 260 264 263 264 263 265 267 270 273 276 278 278 280 282 282 283 287 291 296 295 295 294 294 292 292
248 251 246 247 248 246 240 243 250 249 249 248 249 252 253 256 257 259 259 262 262 261 262 264 266 269 271 273 275 276 277 279 280 281 281 286 287 298 296 294 295 294 294 296 297
244 245 246 245 247 245 241 249 251 251 249 248 247 248 251 254 254 256 258 260 261 262 263 266 267 270 273 276 275 277 280 278 275 277 283 290 296 301 299 298 297 296 298 298 298
242 243 246 242 245 244 241 244 244 245 245 246 247 248 247 249 252 253 255 256 260 259 257 259 266 271 273 273 274 278 279 277 277 282 286 292 298 303 300 303 300 301 298 296 300
238 240 239 242 238 240 241 238 234 230 232 235 242 245 244 242 246 250 253 251 253 254 258 270 271 271 270 272 275 272 268 270 274 280 287 293 301 305 302 302 301 299 295 299 299
235 234 231 234 238 239 240 235 223 220 232 233 233 236 237 241 251 244 247 251 251 251 268 264 264 267 270 272 271 268 270 274 278 286 290 294 302 303 306 302 303 301 297 296 294
232 234 232 231 232 241 238 233 226 229 230 233 235 229 242 249 241 251 250 250 250 256 256 256 261 262 268 271 274 272 275 285 287 291 291 300 299 307 303 304 298 292 293 292 287
237 231 233 229 228 233 238 237 239 236 233 230 231 242 242 240 249 249 248 246 247 251 255 258 262 264 265 273 275 275 282 287 291 290 292 297 301 301 304 299 290 293 293 294 292
235 233 232 230 227 226 231 235 237 237 240 240 237 237 239 241 243 243 246 246 247 249 252 257 262 259 263 270 280 282 290 288 284 286 292 294 295 299 299 288 288 293 298 298 293